This demonstration page uses our WeatherBlox Daily Observations layout. Learn more.

39.29038, -76.61219

Hourly Observations for October 30, 2020

Temp ( °F °C ) Dew Point ( °F °C ) Humidity (%) Winds ( mph kmh ) Pressure ( in mb ) Visibility ( mi km ) Precip ( " mm )
12:54 am 00:54 Cloudy 51 10.6 47 8.3 86 86 NNE 12 19 29.6 1002 10 16.0934 0 0
1:54 am 01:54 Cloudy with Drizzle 50 10 47 8.3 89 89 NNE 9 15 29.58 1002 6 9.65604 0.001 0.001
2:42 am 02:42 Cloudy with Light Rain 50 10 47 8.3 89 89 NNE 9 15 29.63 1003 5 8.0467 0.03 0.762
2:54 am 02:54 Cloudy with Light Rain 50 10 47 8.3 89 89 N 9 15 29.62 1003 4 6.43736 0.06 1.524
3:28 am 03:28 Cloudy with Light Rain 49 9.4 47 8.3 93 93 NNW 9 15 29.64 1004 7 11.26538 0.05 1.27
3:54 am 03:54 Cloudy with Light Rain 49 9.4 46 7.8 90 90 NNE 6 9 29.61 1003 9 14.48406 0.09 2.286
4:23 am 04:23 Cloudy with Light Rain 49 9.4 47 8.3 93 93 NNE 6 9 29.59 1002 10 16.0934 0.01 0.254
4:50 am 04:50 Cloudy 48 9 46 8 94 94 NNW 7 11 29.62 1003 10 16.0934 0.01 0.254
4:54 am 04:54 Cloudy 49 9.4 46 7.8 90 90 NNW 8 13 29.62 1003 10 16.0934 0.01 0.254
5:24 am 05:24 Cloudy with Drizzle 49 9.4 46 7.8 90 90 N 8 13 29.64 1004 3 4.82802 0.001 0.001
5:36 am 05:36 Cloudy with Drizzle 49 9.4 46 7.8 90 90 NNW 7 11 29.64 1004 3 4.82802 0.01 0.254
5:54 am 05:54 Cloudy with Drizzle 48 8.9 45 7.2 89 89 NNW 10 17 29.67 1005 5 8.0467 0.01 0.254
6:45 am 06:45 Cloudy 48 8.9 45 7.2 89 89 N 12 19 29.7 1006 10 16.0934 0.02 0.508
6:52 am 06:52 Cloudy 48 9 45 7 87 87 N 7 11 29.71 1006 10 16.0934 0.02 0.508
6:54 am 06:54 Cloudy 48 8.9 45 7.2 89 89 N 8 13 29.7 1006 10 16.0934 0.02 0.508
7:54 am 07:54 Mostly Cloudy 48 8.9 44 6.7 86 86 VRB 7 11 29.74 1007 10 16.0934 0 0
8:01 am 08:01 Mostly Cloudy 48 8.9 44 6.7 86 86 NNW 8 13 29.75 1008 10 16.0934 0 0
8:54 am 08:54 Mostly Cloudy 49 9.4 44 6.7 83 83 NW 6 9 29.82 1010 10 16.0934 0 0
9:54 am 09:54 Mostly Cloudy 49 9.4 42 5.6 77 77 NNW 13 20 29.87 1012 10 16.0934 0 0
10:54 am 10:54 Cloudy 50 10 42 5.6 74 74 NNW 7 11 29.9 1012 10 16.0934 0 0
11:54 am 11:54 Mostly Cloudy 50 10 40 4.4 68 68 N 9 15 29.93 1014 10 16.0934 0 0
12:54 pm 12:54 Cloudy 49 9.4 40 4.4 71 71 NNW 10 17 29.97 1015 10 16.0934 0 0
1:54 pm 13:54 Cloudy 50 10 40 4.4 68 68 NW 9 15 30 1016 10 16.0934 0 0
2:54 pm 14:54 Mostly Cloudy 51 10.6 40 4.4 66 66 NW 12 19 30.02 1017 10 16.0934 0 0
3:54 pm 15:54 Mostly Cloudy 51 10.6 39 3.9 64 64 NW 13 20 30.06 1018 10 16.0934 0 0
4:42 pm 16:42 Mostly Cloudy 51 10.6 38 3.3 61 61 NNW 9 15 30.08 1019 10 16.0934 0 0
4:54 pm 16:54 Mostly Cloudy 51 10.6 39 3.9 64 64 N 7 11 30.09 1019 10 16.0934 0 0
5:54 pm 17:54 Mostly Cloudy 50 10 39 3.9 66 66 N 6 9 30.11 1020 10 16.0934 0 0
6:54 pm 18:54 Mostly Cloudy 48 8.9 38 3.3 68 68 N 6 9 30.14 1021 10 16.0934 0 0
7:54 pm 19:54 Partly Cloudy 46 7.8 39 3.9 77 77 SW 5 7 30.18 1022 10 16.0934 0 0
8:54 pm 20:54 Partly Cloudy 45 7.2 39 3.9 80 80 Calm 30.22 1023 10 16.0934 0 0
9:54 pm 21:54 Mostly Cloudy 45 7.2 40 4.4 83 83 Calm 30.24 1024 10 16.0934 0 0
10:54 pm 22:54 Mostly Cloudy 46 7.8 42 5.6 86 86 Calm 30.29 1026 10 16.0934 0 0
10:57 pm 22:57 Cloudy 46 7.8 42 5.6 86 86 Calm 30.3 1026 10 16.0934 0 0
11:54 pm 23:54 Cloudy with Light Rain 46 7.8 42 5.6 86 86 N 6 9 30.32 1027 7 11.26538 0.03 0.762

Powered by AerisWeather